START_TIME,STEP,MOV.,H8,t_acc.,H43,t_acc.,M25,t_acc.,H9,t_acc.
1979-07-14 09:00:29.780 ,0,0,0.,12.0,0.,12.0,0.,12.0,0.,12.0
1979-07-14 09:00:41.780 ,0,0,0.,12.0,0.,12.0,0.,12.0,0.,12.0
1979-07-14 09:00:53.780 ,0,0,0.,12.0,0.,12.0,0.,12.0,0.,12.0
1979-07-14 09:01:05.780 ,0,0,0.,12.0,0.,12.0,0.,12.0,0.,12.0
1979-07-14 09:01:17.780 ,0,0,0.,12.0,0.,12.0,0.,12.0,0.,12.0
1979-07-14 09:01:29.780 ,0,0,0.,12.0,0.,12.0,0.,12.0,0.,12.0
1979-07-14 09:01:41.780 ,1,0,0.,12.0,0.,12.0,0.,12.0,0.,12.0
1979-07-14 09:01:53.780 ,1,0,0.,12.0,0.,12.0,0.,12.0,0.,12.0
1979-07-14 09:02:05.780 ,1,0,0.,12.0,0.,12.0,0.,12.0,0.,12.0
1979-07-14 09:02:17.780 ,1,0,0.,12.0,0.,12.0,0.,12.0,0.,12.0
1979-07-14 09:02:29.780 ,2,0,0.,12.0,0.,12.0,0.,12.0,0.,12.0
1979-07-14 09:02:41.780 ,2,0,0.,12.0,0.,12.0,0.,12.0,0.,12.0
1979-07-14 09:02:53.780 ,2,0,0.,12.0,0.,12.0,0.,12.0,0.,12.0
1979-07-14 09:03:05.780 ,2,0,0.,12.0,0.,12.0,0.,12.0,0.,12.0
1979-07-14 09:03:17.780 ,3,0,0.,12.0,0.,12.0,0.,12.0,0.,12.0
1979-07-14 09:03:29.780 ,3,0,0.,12.0,0.,12.0,0.,12.0,0.,12.0
1979-07-14 09:03:41.780 ,3,0,0.,12.0,0.,12.0,0.,12.0,0.,12.0
1979-07-14 09:03:53.780 ,3,0,0.,12.0,0.,12.0,0.,12.0,0.,12.0
1979-07-14 09:04:05.780 ,4,0,0.,12.0,0.,12.0,0.,12.0,0.,12.0
1979-07-14 09:04:17.780 ,4,0,0.,12.0,0.,12.0,0.,12.0,0.,12.0
1979-07-14 09:04:29.780 ,4,0,0.,12.0,0.,12.0,0.,12.0,0.,12.0
1979-07-14 09:04:41.780 ,4,0,0.,12.0,0.,12.0,0.,12.0,0.,12.0
1979-07-14 09:04:53.780 ,5,0,0.,12.0,0.,12.0,0.,12.0,0.,12.0
1979-07-14 09:05:05.780 ,5,0,0.,12.0,0.,12.0,0.,12.0,0.,12.0
1979-07-14 09:05:17.780 ,5,0,0.,12.0,0.,12.0,0.,12.0,0.,12.0
1979-07-14 09:05:29.780 ,5,0,0.,12.0,0.,12.0,0.,12.0,0.,12.0
1979-07-14 09:05:41.780 ,6,0,1.,12.0,0.,12.0,0.,12.0,0.,12.0
1979-07-14 09:05:53.780 ,6,0,0.,12.0,0.,12.0,0.,12.0,0.,12.0
1979-07-14 09:06:05.780 ,6,0,0.,12.0,0.,12.0,0.,12.0,0.,12.0
1979-07-14 09:06:17.780 ,6,0,1.,12.0,0.,12.0,0.,12.0,0.,12.0
1979-07-14 09:06:29.780 ,7,0,0.,12.0,0.,12.0,0.,12.0,0.,12.0
1979-07-14 09:06:41.780 ,7,0,0.,12.0,0.,12.0,0.,12.0,0.,12.0
1979-07-14 09:06:53.780 ,7,0,0.,12.0,0.,12.0,0.,12.0,0.,12.0
1979-07-14 09:07:05.780 ,7,0,0.,12.0,0.,12.0,0.,12.0,0.,12.0
1979-07-14 09:07:17.780 ,3,1,0.,12.0,0.,12.0,0.,12.0,0.,12.0
1979-07-14 09:07:29.780 ,3,1,0.,12.0,0.,12.0,0.,12.0,0.,12.0
1979-07-14 09:07:41.780 ,0,1,0.,12.0,0.,12.0,0.,12.0,0.,12.0
1979-07-14 09:07:53.780 ,0,1,0.,12.0,0.,12.0,0.,12.0,0.,12.0
1979-07-14 09:08:05.780 ,4,1,0.,12.0,0.,12.0,0.,12.0,0.,12.0
1979-07-14 09:08:17.780 ,4,1,0.,12.0,0.,12.0,0.,12.0,0.,12.0
1979-07-14 09:08:29.780 ,7,1,0.,12.0,0.,12.0,0.,12.0,0.,12.0
1979-07-14 09:08:41.780 ,7,1,0.,12.0,0.,12.0,0.,12.0,0.,12.0
1979-07-14 09:08:53.780 ,3,1,0.,12.0,0.,12.0,0.,12.0,0.,12.0
1979-07-14 09:09:05.780 ,3,1,0.,12.0,0.,12.0,0.,12.0,0.,12.0
1979-07-14 09:09:17.780 ,0,1,0.,12.0,0.,12.0,0.,12.0,0.,12.0
1979-07-14 09:09:29.780 ,0,1,0.,12.0,0.,12.0,0.,12.0,0.,12.0
1979-07-14 09:09:41.780 ,4,1,0.,12.0,0.,12.0,0.,12.0,0.,12.0
1979-07-14 09:09:53.780 ,4,1,0.,12.0,0.,12.0,0.,12.0,1.,12.0
1979-07-14 09:10:05.780 ,7,1,0.,12.0,0.,12.0,0.,12.0,0.,12.0
1979-07-14 09:10:17.780 ,7,1,0.,12.0,0.,12.0,0.,12.0,0.,12.0
1979-07-14 09:10:29.780 ,3,1,0.,12.0,0.,12.0,0.,12.0,0.,12.0
1979-07-14 09:10:41.780 ,3,1,0.,12.0,0.,12.0,0.,12.0,0.,12.0
1979-07-14 09:10:53.780 ,0,1,0.,12.0,0.,12.0,0.,12.0,0.,12.0
1979-07-14 09:11:05.780 ,0,1,0.,12.0,0.,12.0,0.,12.0,0.,12.0
1979-07-14 09:11:17.780 ,4,1,0.,12.0,0.,12.0,0.,12.0,0.,12.0
1979-07-14 09:11:29.780 ,4,1,0.,12.0,0.,12.0,0.,12.0,0.,12.0
1979-07-14 09:11:41.780 ,7,1,0.,12.0,0.,12.0,0.,12.0,0.,12.0
1979-07-14 09:11:53.780 ,7,1,0.,12.0,0.,12.0,0.,12.0,0.,12.0
1979-07-14 09:12:05.780 ,3,1,0.,12.0,0.,12.0,0.,12.0,0.,12.0
1979-07-14 09:12:17.780 ,3,1,0.,12.0,0.,12.0,0.,12.0,0.,12.0
1979-07-14 09:12:29.780 ,0,1,0.,12.0,0.,12.0,0.,12.0,0.,12.0
1979-07-14 09:12:41.780 ,0,1,0.,12.0,0.,12.0,0.,12.0,0.,12.0
1979-07-14 09:12:53.780 ,4,1,0.,12.0,0.,12.0,0.,12.0,0.,12.0
1979-07-14 09:13:05.780 ,4,1,0.,12.0,0.,12.0,0.,12.0,0.,12.0
1979-07-14 09:13:17.780 ,7,1,0.,12.0,0.,12.0,0.,12.0,0.,12.0
1979-07-14 09:13:29.780 ,7,1,0.,12.0,0.,12.0,0.,12.0,0.,12.0
1979-07-14 09:13:41.780 ,3,1,0.,12.0,0.,12.0,0.,12.0,0.,12.0
1979-07-14 09:13:53.780 ,3,1,0.,12.0,0.,12.0,0.,12.0,0.,12.0
1979-07-14 09:14:05.780 ,0,1,0.,12.0,0.,12.0,0.,12.0,0.,12.0
1979-07-14 09:14:17.780 ,0,1,0.,12.0,0.,12.0,0.,12.0,0.,12.0
1979-07-14 09:14:29.780 ,4,1,0.,12.0,0.,12.0,0.,12.0,0.,12.0
1979-07-14 09:14:41.780 ,4,1,0.,12.0,0.,12.0,0.,12.0,0.,12.0
1979-07-14 09:14:53.780 ,7,1,0.,12.0,0.,12.0,0.,12.0,0.,12.0
1979-07-14 09:15:05.780 ,7,1,0.,12.0,0.,12.0,0.,12.0,0.,12.0
1979-07-14 09:15:17.780 ,3,1,0.,12.0,0.,12.0,0.,12.0,0.,12.0
1979-07-14 09:15:29.780 ,3,1,0.,12.0,0.,12.0,0.,12.0,0.,12.0
1979-07-14 09:15:41.780 ,0,1,0.,12.0,0.,12.0,0.,12.0,0.,12.0
1979-07-14 09:15:53.780 ,0,1,0.,12.0,0.,12.0,0.,12.0,0.,12.0
1979-07-14 09:16:05.780 ,4,1,0.,12.0,0.,12.0,0.,12.0,0.,12.0
1979-07-14 09:16:17.780 ,4,1,0.,12.0,0.,12.0,0.,12.0,0.,12.0
1979-07-14 09:16:29.780 ,7,1,0.,12.0,0.,12.0,0.,12.0,0.,12.0
1979-07-14 09:16:41.780 ,7,1,0.,12.0,0.,12.0,0.,12.0,0.,12.0
1979-07-14 09:16:53.780 ,3,1,0.,12.0,0.,12.0,0.,12.0,0.,12.0
1979-07-14 09:17:05.780 ,3,1,0.,12.0,0.,12.0,0.,12.0,0.,12.0
1979-07-14 09:17:17.780 ,0,1,0.,12.0,0.,12.0,0.,12.0,0.,12.0
1979-07-14 09:17:29.780 ,0,1,0.,12.0,0.,12.0,0.,12.0,0.,12.0
1979-07-14 09:17:41.780 ,0,0,0.,12.0,0.,12.0,0.,12.0,0.,12.0
1979-07-14 09:17:53.780 ,0,0,0.,12.0,0.,12.0,0.,12.0,0.,12.0
1979-07-14 09:18:05.780 ,0,0,0.,12.0,0.,12.0,0.,12.0,0.,12.0
1979-07-14 09:18:17.780 ,0,0,0.,12.0,0.,12.0,0.,12.0,0.,12.0
1979-07-14 09:18:29.780 ,5,0,0.,12.0,0.,12.0,0.,12.0,0.,12.0
1979-07-14 09:18:41.780 ,5,0,0.,12.0,0.,12.0,0.,12.0,0.,12.0
1979-07-14 09:18:53.780 ,5,0,0.,12.0,0.,12.0,0.,12.0,0.,12.0
1979-07-14 09:19:05.780 ,5,0,0.,12.0,0.,12.0,0.,12.0,0.,12.0
1979-07-14 09:19:17.780 ,4,0,0.,12.0,0.,12.0,0.,12.0,0.,12.0
1979-07-14 09:19:29.780 ,4,0,0.,12.0,0.,12.0,0.,12.0,0.,12.0
1979-07-14 09:19:41.780 ,4,0,0.,12.0,0.,12.0,0.,12.0,0.,12.0
1979-07-14 09:19:53.780 ,4,0,0.,12.0,0.,12.0,0.,12.0,0.,12.0
1979-07-14 09:20:05.780 ,3,0,0.,12.0,0.,12.0,0.,12.0,0.,12.0
1979-07-14 09:20:17.780 ,3,0,0.,12.0,0.,12.0,0.,12.0,0.,12.0
1979-07-14 09:20:29.780 ,3,0,0.,12.0,0.,12.0,0.,12.0,0.,12.0
1979-07-14 09:20:41.780 ,3,0,0.,12.0,0.,12.0,0.,12.0,0.,12.0
1979-07-14 09:20:53.780 ,2,0,0.,12.0,0.,12.0,0.,12.0,0.,12.0
1979-07-14 09:21:05.780 ,2,0,0.,12.0,0.,12.0,0.,12.0,0.,12.0
1979-07-14 09:21:17.780 ,2,0,0.,12.0,0.,12.0,0.,12.0,0.,12.0
1979-07-14 09:21:29.780 ,2,0,0.,12.0,0.,12.0,0.,12.0,0.,12.0
1979-07-14 09:21:41.780 ,1,0,0.,12.0,0.,12.0,0.,12.0,0.,12.0
1979-07-14 09:21:53.780 ,1,0,0.,12.0,0.,12.0,0.,12.0,0.,12.0
1979-07-14 09:22:05.780 ,1,0,0.,12.0,0.,12.0,0.,12.0,0.,12.0
1979-07-14 09:22:17.780 ,1,0,0.,12.0,0.,12.0,0.,12.0,0.,12.0
1979-07-14 09:22:29.780 ,0,0,0.,12.0,0.,12.0,0.,12.0,0.,12.0
1979-07-14 09:22:41.780 ,0,0,0.,12.0,0.,12.0,0.,12.0,0.,12.0
1979-07-14 09:22:53.780 ,0,0,0.,12.0,0.,12.0,0.,12.0,0.,12.0
1979-07-14 09:23:05.780 ,0,0,0.,12.0,0.,12.0,0.,12.0,0.,12.0
1979-07-14 09:23:17.780 ,0,0,0.,12.0,0.,12.0,0.,12.0,0.,12.0
1979-07-14 09:23:29.780 ,0,0,0.,12.0,0.,12.0,0.,12.0,0.,12.0
1979-07-14 09:23:41.780 ,0,0,0.,12.0,0.,12.0,0.,12.0,0.,12.0
1979-07-14 09:23:53.780 ,0,0,0.,12.0,0.,12.0,0.,12.0,0.,12.0
1979-07-14 09:24:05.780 ,1,0,0.,12.0,0.,12.0,0.,12.0,0.,12.0
1979-07-14 09:24:17.780 ,1,0,0.,12.0,0.,12.0,0.,12.0,0.,12.0
1979-07-14 09:24:29.780 ,1,0,0.,12.0,0.,12.0,0.,12.0,0.,12.0
1979-07-14 09:24:41.780 ,1,0,0.,12.0,0.,12.0,0.,12.0,0.,12.0
1979-07-14 09:24:53.780 ,2,0,0.,12.0,0.,12.0,0.,12.0,0.,12.0
1979-07-14 09:25:05.780 ,2,0,1.,12.0,0.,12.0,0.,12.0,0.,12.0
1979-07-14 09:25:17.780 ,2,0,0.,12.0,0.,12.0,0.,12.0,0.,12.0
1979-07-14 09:25:29.780 ,2,0,0.,12.0,0.,12.0,0.,12.0,0.,12.0
1979-07-14 09:25:41.780 ,3,0,0.,12.0,0.,12.0,0.,12.0,0.,12.0
1979-07-14 09:25:53.780 ,3,0,0.,12.0,0.,12.0,0.,12.0,0.,12.0
1979-07-14 09:26:05.780 ,3,0,0.,12.0,0.,12.0,0.,12.0,0.,12.0
1979-07-14 09:26:17.780 ,3,0,0.,12.0,0.,12.0,0.,12.0,0.,12.0
1979-07-14 09:26:29.780 ,4,0,0.,12.0,0.,12.0,0.,12.0,0.,12.0
1979-07-14 09:26:41.780 ,4,0,0.,12.0,0.,12.0,0.,12.0,0.,12.0
1979-07-14 09:26:53.780 ,4,0,0.,12.0,0.,12.0,0.,12.0,0.,12.0
1979-07-14 09:27:05.780 ,4,0,0.,12.0,0.,12.0,0.,12.0,0.,12.0
1979-07-14 09:27:17.780 ,5,0,0.,12.0,0.,12.0,0.,12.0,0.,12.0
1979-07-14 09:27:29.780 ,5,0,0.,12.0,0.,12.0,0.,12.0,0.,12.0
1979-07-14 09:27:41.780 ,5,0,0.,12.0,0.,12.0,0.,12.0,0.,12.0
1979-07-14 09:27:53.780 ,5,0,0.,12.0,0.,12.0,0.,12.0,0.,12.0
1979-07-14 09:28:05.780 ,6,0,0.,12.0,0.,12.0,0.,12.0,0.,12.0
1979-07-14 09:28:17.780 ,6,0,0.,12.0,0.,12.0,0.,12.0,0.,12.0
1979-07-14 09:28:29.780 ,6,0,0.,12.0,0.,12.0,0.,12.0,0.,12.0
1979-07-14 09:28:41.780 ,6,0,0.,12.0,0.,12.0,0.,12.0,0.,12.0
1979-07-14 09:28:53.780 ,7,0,0.,12.0,0.,12.0,0.,12.0,0.,12.0
1979-07-14 09:29:05.780 ,7,0,0.,12.0,0.,12.0,0.,12.0,0.,12.0
1979-07-14 09:29:17.780 ,7,0,0.,12.0,0.,12.0,0.,12.0,0.,12.0
1979-07-14 09:29:29.780 ,7,0,0.,12.0,0.,12.0,0.,12.0,0.,12.0
1979-07-14 09:29:41.780 ,7,0,0.,12.0,0.,12.0,0.,12.0,0.,12.0
1979-07-14 09:29:53.780 ,7,0,0.,12.0,0.,12.0,0.,12.0,0.,12.0
1979-07-14 09:30:05.780 ,7,0,0.,12.0,0.,12.0,0.,12.0,0.,12.0
1979-07-14 09:30:17.780 ,7,0,0.,12.0,0.,12.0,0.,12.0,0.,12.0
1979-07-14 09:30:29.780 ,6,0,0.,12.0,0.,12.0,0.,12.0,0.,12.0
1979-07-14 09:30:41.780 ,6,0,0.,12.0,0.,12.0,0.,12.0,0.,12.0
1979-07-14 09:30:53.780 ,6,0,0.,12.0,1.,12.0,0.,12.0,0.,12.0
1979-07-14 09:31:05.780 ,6,0,0.,12.0,0.,12.0,0.,12.0,0.,12.0
1979-07-14 09:31:17.780 ,5,0,0.,12.0,0.,12.0,0.,12.0,0.,12.0
1979-07-14 09:31:29.780 ,5,0,0.,12.0,0.,12.0,0.,12.0,0.,12.0
1979-07-14 09:31:41.780 ,5,0,0.,12.0,0.,12.0,0.,12.0,0.,12.0
1979-07-14 09:31:53.780 ,5,0,0.,12.0,0.,12.0,0.,12.0,0.,12.0
1979-07-14 09:32:05.780 ,4,0,0.,12.0,0.,12.0,0.,12.0,0.,12.0
1979-07-14 09:32:17.780 ,4,0,0.,12.0,0.,12.0,0.,12.0,0.,12.0
1979-07-14 09:32:29.780 ,4,0,0.,12.0,0.,12.0,0.,12.0,0.,12.0
1979-07-14 09:32:41.780 ,4,0,0.,12.0,0.,12.0,0.,12.0,0.,12.0
1979-07-14 09:32:53.780 ,3,0,0.,12.0,0.,12.0,0.,12.0,0.,12.0
1979-07-14 09:33:05.780 ,3,0,0.,12.0,0.,12.0,0.,12.0,0.,12.0
1979-07-14 09:33:17.780 ,3,0,0.,12.0,0.,12.0,0.,12.0,0.,12.0
1979-07-14 09:33:29.780 ,3,0,0.,12.0,0.,12.0,0.,12.0,0.,12.0
1979-07-14 09:33:41.780 ,2,0,0.,12.0,0.,12.0,0.,12.0,0.,12.0
1979-07-14 09:33:53.780 ,2,0,0.,12.0,0.,12.0,0.,12.0,0.,12.0
1979-07-14 09:34:05.780 ,2,0,0.,12.0,0.,12.0,0.,12.0,0.,12.0
1979-07-14 09:34:17.780 ,2,0,0.,12.0,0.,12.0,0.,12.0,0.,12.0
1979-07-14 09:34:29.780 ,1,0,0.,12.0,0.,12.0,0.,12.0,0.,12.0
1979-07-14 09:34:41.780 ,1,0,0.,12.0,0.,12.0,0.,12.0,0.,12.0
1979-07-14 09:34:53.780 ,1,0,0.,12.0,0.,12.0,0.,12.0,0.,12.0
1979-07-14 09:35:05.780 ,1,0,0.,12.0,0.,12.0,0.,12.0,0.,12.0
1979-07-14 09:35:17.780 ,0,0,0.,12.0,0.,12.0,0.,12.0,0.,12.0
1979-07-14 09:35:29.780 ,0,0,0.,12.0,0.,12.0,0.,12.0,0.,12.0
1979-07-14 09:35:41.780 ,0,0,0.,12.0,0.,12.0,0.,12.0,0.,12.0
1979-07-14 09:35:53.780 ,0,0,0.,12.0,0.,12.0,0.,12.0,0.,12.0
1979-07-14 09:36:05.780 ,0,0,0.,12.0,0.,12.0,0.,12.0,0.,12.0
1979-07-14 09:36:17.780 ,0,0,0.,12.0,0.,12.0,0.,12.0,0.,12.0
1979-07-14 09:36:29.780 ,0,0,0.,12.0,0.,12.0,0.,12.0,0.,12.0
1979-07-14 09:36:41.780 ,0,0,0.,12.0,0.,12.0,0.,12.0,0.,12.0
1979-07-14 09:36:53.780 ,1,0,0.,12.0,0.,12.0,0.,12.0,0.,12.0
1979-07-14 09:37:05.780 ,1,0,0.,12.0,0.,12.0,0.,12.0,0.,12.0
1979-07-14 09:37:17.780 ,1,0,0.,12.0,0.,12.0,0.,12.0,0.,12.0
1979-07-14 09:37:29.780 ,1,0,0.,12.0,0.,12.0,0.,12.0,0.,12.0
1979-07-14 09:37:41.780 ,2,0,0.,12.0,0.,12.0,0.,12.0,0.,12.0
1979-07-14 09:37:53.780 ,2,0,0.,12.0,0.,12.0,0.,12.0,0.,12.0
1979-07-14 09:38:05.780 ,2,0,0.,12.0,0.,12.0,0.,12.0,0.,12.0
1979-07-14 09:38:17.780 ,2,0,0.,12.0,0.,12.0,0.,12.0,0.,12.0
1979-07-14 09:38:29.780 ,3,0,0.,12.0,0.,12.0,0.,12.0,0.,12.0
1979-07-14 09:38:41.780 ,3,0,0.,12.0,0.,12.0,0.,12.0,0.,12.0
1979-07-14 09:38:53.780 ,3,0,0.,12.0,0.,12.0,0.,12.0,0.,12.0
1979-07-14 09:39:05.780 ,3,0,0.,12.0,0.,12.0,0.,12.0,0.,12.0
1979-07-14 09:39:17.780 ,4,0,0.,12.0,0.,12.0,0.,12.0,0.,12.0
1979-07-14 09:39:29.780 ,4,0,0.,12.0,0.,12.0,0.,12.0,0.,12.0
1979-07-14 09:39:41.780 ,4,0,0.,12.0,0.,12.0,0.,12.0,0.,12.0
1979-07-14 09:39:53.780 ,4,0,0.,12.0,0.,12.0,0.,12.0,0.,12.0
1979-07-14 09:40:05.780 ,5,0,0.,12.0,0.,12.0,0.,12.0,0.,12.0
1979-07-14 09:40:17.780 ,5,0,0.,12.0,0.,12.0,0.,12.0,0.,12.0
1979-07-14 09:40:29.780 ,5,0,0.,12.0,0.,12.0,0.,12.0,0.,12.0
1979-07-14 09:40:41.780 ,5,0,0.,12.0,0.,12.0,0.,12.0,0.,12.0
1979-07-14 09:40:53.780 ,6,0,0.,12.0,0.,12.0,0.,12.0,0.,12.0
1979-07-14 09:41:05.780 ,6,0,0.,12.0,0.,12.0,0.,12.0,0.,12.0
1979-07-14 09:41:17.780 ,6,0,0.,12.0,0.,12.0,0.,12.0,0.,12.0
1979-07-14 09:41:29.780 ,6,0,0.,12.0,0.,12.0,0.,12.0,0.,12.0
1979-07-14 09:41:41.780 ,7,0,0.,12.0,0.,12.0,0.,12.0,0.,12.0
1979-07-14 09:41:53.780 ,7,0,0.,12.0,0.,12.0,0.,12.0,0.,12.0
1979-07-14 09:42:05.780 ,7,0,0.,12.0,0.,12.0,0.,12.0,0.,12.0
1979-07-14 09:42:17.780 ,7,0,0.,12.0,0.,12.0,0.,12.0,0.,12.0
1979-07-14 09:42:29.780 ,7,0,0.,12.0,0.,12.0,0.,12.0,0.,12.0
1979-07-14 09:42:41.780 ,7,0,0.,12.0,0.,12.0,0.,12.0,0.,12.0
1979-07-14 09:42:53.780 ,7,0,0.,12.0,0.,12.0,0.,12.0,0.,12.0
1979-07-14 09:43:05.780 ,7,0,0.,12.0,0.,12.0,0.,12.0,0.,12.0
1979-07-14 09:43:17.780 ,6,0,0.,12.0,0.,12.0,0.,12.0,0.,12.0
1979-07-14 09:43:29.780 ,6,0,0.,12.0,0.,12.0,0.,12.0,0.,12.0
1979-07-14 09:43:41.780 ,6,0,0.,12.0,0.,12.0,0.,12.0,0.,12.0
1979-07-14 09:43:53.780 ,6,0,0.,12.0,0.,12.0,0.,12.0,0.,12.0
1979-07-14 09:44:05.780 ,5,0,0.,12.0,0.,12.0,0.,12.0,0.,12.0
1979-07-14 09:44:17.780 ,5,0,0.,12.0,0.,12.0,0.,12.0,0.,12.0
1979-07-14 09:44:29.780 ,5,0,0.,12.0,0.,12.0,0.,12.0,0.,12.0
1979-07-14 09:44:41.780 ,5,0,0.,12.0,0.,12.0,0.,12.0,0.,12.0
1979-07-14 09:44:53.780 ,4,0,0.,12.0,0.,12.0,0.,12.0,0.,12.0
1979-07-14 09:45:05.780 ,4,0,0.,12.0,0.,12.0,0.,12.0,0.,12.0
1979-07-14 09:45:17.780 ,4,0,0.,12.0,0.,12.0,0.,12.0,0.,12.0
1979-07-14 09:45:29.780 ,4,0,0.,12.0,0.,12.0,0.,12.0,0.,12.0
1979-07-14 09:45:41.780 ,3,0,0.,12.0,0.,12.0,0.,12.0,0.,12.0
1979-07-14 09:45:53.780 ,3,0,0.,12.0,0.,12.0,0.,12.0,0.,12.0
1979-07-14 09:46:05.780 ,3,0,0.,12.0,0.,12.0,0.,12.0,0.,12.0
1979-07-14 09:46:17.780 ,3,0,0.,12.0,0.,12.0,0.,12.0,0.,12.0
1979-07-14 09:46:29.780 ,2,0,0.,12.0,0.,12.0,0.,12.0,0.,12.0
1979-07-14 09:46:41.780 ,2,0,0.,12.0,0.,12.0,0.,12.0,0.,12.0
1979-07-14 09:46:53.780 ,2,0,0.,12.0,0.,12.0,0.,12.0,0.,12.0
1979-07-14 09:47:05.780 ,2,0,0.,12.0,0.,12.0,0.,12.0,0.,12.0
1979-07-14 09:47:17.780 ,1,0,0.,12.0,0.,12.0,0.,12.0,0.,12.0
1979-07-14 09:47:29.780 ,1,0,0.,12.0,0.,12.0,0.,12.0,0.,12.0
1979-07-14 09:47:41.780 ,1,0,0.,12.0,0.,12.0,0.,12.0,0.,12.0
1979-07-14 09:47:53.780 ,1,0,0.,12.0,0.,12.0,0.,12.0,0.,12.0
1979-07-14 09:48:05.780 ,0,0,0.,12.0,0.,12.0,0.,12.0,0.,12.0
1979-07-14 09:48:17.780 ,0,0,0.,12.0,0.,12.0,0.,12.0,0.,12.0
1979-07-14 09:48:29.780 ,0,0,0.,12.0,0.,12.0,0.,12.0,0.,12.0
1979-07-14 09:48:41.780 ,0,0,0.,12.0,0.,12.0,0.,12.0,0.,12.0
1979-07-14 09:48:53.780 ,0,0,0.,12.0,0.,12.0,0.,12.0,0.,12.0
1979-07-14 09:49:05.780 ,0,0,0.,12.0,0.,12.0,0.,12.0,0.,12.0
1979-07-14 09:49:17.780 ,0,0,0.,12.0,0.,12.0,0.,12.0,0.,12.0
1979-07-14 09:49:29.780 ,0,0,0.,12.0,0.,12.0,0.,12.0,0.,12.0
1979-07-14 09:49:41.780 ,1,0,0.,12.0,0.,12.0,0.,12.0,0.,12.0
1979-07-14 09:49:53.780 ,1,0,0.,12.0,0.,12.0,0.,12.0,0.,12.0
1979-07-14 09:50:05.780 ,1,0,0.,12.0,0.,12.0,0.,12.0,0.,12.0
1979-07-14 09:50:17.780 ,1,0,0.,12.0,0.,12.0,0.,12.0,0.,12.0
1979-07-14 09:50:29.780 ,2,0,0.,12.0,0.,12.0,0.,12.0,0.,12.0
1979-07-14 09:50:41.780 ,2,0,0.,12.0,0.,12.0,0.,12.0,0.,12.0
1979-07-14 09:50:53.780 ,2,0,0.,12.0,0.,12.0,0.,12.0,0.,12.0
1979-07-14 09:51:05.780 ,2,0,0.,12.0,0.,12.0,0.,12.0,0.,12.0
1979-07-14 09:51:17.780 ,3,0,0.,12.0,0.,12.0,0.,12.0,0.,12.0
1979-07-14 09:51:29.780 ,3,0,0.,12.0,0.,12.0,0.,12.0,0.,12.0
1979-07-14 09:51:41.780 ,3,0,0.,12.0,0.,12.0,0.,12.0,0.,12.0
1979-07-14 09:51:53.780 ,3,0,0.,12.0,0.,12.0,0.,12.0,0.,12.0
1979-07-14 09:52:05.780 ,4,0,0.,12.0,0.,12.0,0.,12.0,0.,12.0
1979-07-14 09:52:17.780 ,4,0,0.,12.0,0.,12.0,0.,12.0,0.,12.0
1979-07-14 09:52:29.780 ,4,0,0.,12.0,0.,12.0,0.,12.0,0.,12.0
1979-07-14 09:52:41.780 ,4,0,0.,12.0,0.,12.0,0.,12.0,0.,12.0
1979-07-14 09:52:53.780 ,5,0,0.,12.0,0.,12.0,0.,12.0,0.,12.0
1979-07-14 09:53:05.780 ,5,0,0.,12.0,0.,12.0,0.,12.0,0.,12.0
1979-07-14 09:53:17.780 ,0,0,0.,12.0,0.,12.0,0.,12.0,0.,12.0
1979-07-14 09:53:29.780 ,0,0,,0,,0,,0,,0
1979-07-14 09:53:41.780 ,6,0,0.,12.0,0.,12.0,0.,12.0,0.,12.0
1979-07-14 09:53:53.780 ,6,0,0.,12.0,0.,12.0,0.,12.0,0.,12.0
1979-07-14 09:54:05.780 ,6,0,0.,12.0,0.,12.0,0.,12.0,0.,12.0
1979-07-14 09:54:17.780 ,6,0,0.,12.0,0.,12.0,0.,12.0,0.,12.0
1979-07-14 09:54:29.780 ,7,0,0.,12.0,0.,12.0,0.,12.0,0.,12.0
1979-07-14 09:54:41.780 ,7,0,0.,12.0,0.,12.0,0.,12.0,0.,12.0
1979-07-14 09:54:53.780 ,7,0,0.,12.0,0.,12.0,0.,12.0,0.,12.0
1979-07-14 09:55:05.780 ,7,0,0.,12.0,0.,12.0,0.,12.0,0.,12.0
1979-07-14 09:55:17.780 ,3,1,0.,12.0,0.,12.0,0.,12.0,0.,12.0
1979-07-14 09:55:29.780 ,3,1,0.,12.0,0.,12.0,0.,12.0,0.,12.0
1979-07-14 09:55:41.780 ,0,1,0.,12.0,0.,12.0,0.,12.0,0.,12.0
1979-07-14 09:55:53.780 ,0,1,0.,12.0,0.,12.0,0.,12.0,0.,12.0
1979-07-14 09:56:05.780 ,4,1,0.,12.0,0.,12.0,0.,12.0,0.,12.0
1979-07-14 09:56:17.780 ,4,1,0.,12.0,0.,12.0,0.,12.0,0.,12.0
1979-07-14 09:56:29.780 ,7,1,0.,12.0,0.,12.0,0.,12.0,0.,12.0
1979-07-14 09:56:41.780 ,7,1,0.,12.0,0.,12.0,0.,12.0,0.,12.0
1979-07-14 09:56:53.780 ,3,1,1.,12.0,0.,12.0,0.,12.0,0.,12.0
1979-07-14 09:57:05.780 ,3,1,0.,12.0,0.,12.0,0.,12.0,0.,12.0
1979-07-14 09:57:17.780 ,0,1,0.,12.0,0.,12.0,0.,12.0,0.,12.0
1979-07-14 09:57:29.780 ,0,1,0.,12.0,0.,12.0,0.,12.0,0.,12.0
1979-07-14 09:57:41.780 ,4,1,0.,12.0,0.,12.0,0.,12.0,0.,12.0
1979-07-14 09:57:53.780 ,4,1,0.,12.0,0.,12.0,0.,12.0,0.,12.0
1979-07-14 09:58:05.780 ,7,1,0.,12.0,0.,12.0,0.,12.0,0.,12.0
1979-07-14 09:58:17.780 ,7,1,0.,12.0,0.,12.0,0.,12.0,0.,12.0
1979-07-14 09:58:29.780 ,3,1,0.,12.0,0.,12.0,0.,12.0,0.,12.0
1979-07-14 09:58:41.780 ,3,1,0.,12.0,0.,12.0,0.,12.0,0.,12.0
1979-07-14 09:58:53.780 ,0,1,0.,12.0,0.,12.0,0.,12.0,0.,12.0
1979-07-14 09:59:05.780 ,0,1,0.,12.0,0.,12.0,0.,12.0,0.,12.0
1979-07-14 09:59:17.780 ,4,1,0.,12.0,0.,12.0,0.,12.0,0.,12.0
1979-07-14 09:59:29.780 ,4,1,0.,12.0,0.,12.0,0.,12.0,0.,12.0
1979-07-14 09:59:41.780 ,7,1,0.,12.0,0.,12.0,0.,12.0,0.,12.0
1979-07-14 09:59:53.780 ,7,1,0.,12.0,0.,12.0,0.,12.0,0.,12.0
1979-07-14 10:00:05.780 ,3,1,0.,12.0,0.,12.0,0.,12.0,0.,12.0
1979-07-14 10:00:17.780 ,3,1,0.,12.0,0.,12.0,0.,12.0,0.,12.0
1979-07-14 10:00:29.780 ,0,1,0.,12.0,0.,12.0,0.,12.0,0.,12.0
1979-07-14 10:00:41.780 ,0,1,0.,12.0,0.,12.0,0.,12.0,0.,12.0
1979-07-14 10:00:53.780 ,4,1,0.,12.0,0.,12.0,0.,12.0,0.,12.0
1979-07-14 10:01:05.780 ,4,1,0.,12.0,0.,12.0,0.,12.0,0.,12.0
1979-07-14 10:01:17.780 ,7,1,0.,12.0,0.,12.0,0.,12.0,0.,12.0
1979-07-14 10:01:29.780 ,7,1,0.,12.0,0.,12.0,0.,12.0,0.,12.0
1979-07-14 10:01:41.780 ,3,1,0.,12.0,0.,12.0,0.,12.0,0.,12.0
1979-07-14 10:01:53.780 ,3,1,2.,12.0,0.,12.0,0.,12.0,0.,12.0
1979-07-14 10:02:05.780 ,0,1,0.,12.0,0.,12.0,0.,12.0,0.,12.0
1979-07-14 10:02:17.780 ,0,1,0.,12.0,0.,12.0,0.,12.0,0.,12.0
1979-07-14 10:02:29.780 ,4,1,0.,12.0,0.,12.0,0.,12.0,0.,12.0
1979-07-14 10:02:41.780 ,4,1,0.,12.0,0.,12.0,0.,12.0,0.,12.0
1979-07-14 10:02:53.780 ,7,1,0.,12.0,0.,12.0,0.,12.0,0.,12.0
1979-07-14 10:03:05.780 ,7,1,0.,12.0,0.,12.0,0.,12.0,0.,12.0
1979-07-14 10:03:17.780 ,3,1,0.,12.0,0.,12.0,0.,12.0,0.,12.0
1979-07-14 10:03:29.780 ,3,1,0.,12.0,0.,12.0,0.,12.0,0.,12.0
1979-07-14 10:03:41.780 ,0,1,0.,12.0,0.,12.0,0.,12.0,0.,12.0
1979-07-14 10:03:53.780 ,0,1,0.,12.0,0.,12.0,0.,12.0,0.,12.0
1979-07-14 10:04:05.780 ,4,1,0.,12.0,0.,12.0,0.,12.0,0.,12.0
1979-07-14 10:04:17.780 ,4,1,0.,12.0,0.,12.0,0.,12.0,0.,12.0
1979-07-14 10:04:29.780 ,7,1,0.,12.0,0.,12.0,0.,12.0,0.,12.0
1979-07-14 10:04:41.780 ,7,1,0.,12.0,0.,12.0,0.,12.0,0.,12.0
1979-07-14 10:04:53.780 ,3,1,0.,12.0,0.,12.0,0.,12.0,0.,12.0
1979-07-14 10:05:05.780 ,3,1,0.,12.0,0.,12.0,0.,12.0,0.,12.0
1979-07-14 10:05:17.780 ,0,1,0.,12.0,0.,12.0,0.,12.0,0.,12.0
1979-07-14 10:05:29.780 ,0,1,0.,12.0,0.,12.0,0.,12.0,0.,12.0
1979-07-14 10:05:41.780 ,0,0,0.,12.0,0.,12.0,0.,12.0,0.,12.0
1979-07-14 10:05:53.780 ,0,0,0.,12.0,0.,12.0,0.,12.0,0.,12.0
1979-07-14 10:06:05.780 ,0,0,1.,12.0,0.,12.0,0.,12.0,0.,12.0
1979-07-14 10:06:17.780 ,0,0,0.,12.0,0.,12.0,0.,12.0,0.,12.0
1979-07-14 10:06:29.780 ,5,0,0.,12.0,0.,12.0,0.,12.0,0.,12.0
1979-07-14 10:06:41.780 ,5,0,0.,12.0,0.,12.0,0.,12.0,0.,12.0
1979-07-14 10:06:53.780 ,5,0,0.,12.0,0.,12.0,0.,12.0,0.,12.0
1979-07-14 10:07:05.780 ,5,0,0.,12.0,0.,12.0,0.,12.0,0.,12.0
1979-07-14 10:07:17.780 ,4,0,1.,12.0,0.,12.0,0.,12.0,0.,12.0
1979-07-14 10:07:29.780 ,4,0,0.,12.0,0.,12.0,0.,12.0,0.,12.0
1979-07-14 10:07:41.780 ,4,0,0.,12.0,0.,12.0,0.,12.0,0.,12.0
1979-07-14 10:07:53.780 ,4,0,0.,12.0,0.,12.0,0.,12.0,0.,12.0
1979-07-14 10:08:05.780 ,3,0,0.,12.0,0.,12.0,0.,12.0,0.,12.0
1979-07-14 10:08:17.780 ,3,0,0.,12.0,0.,12.0,0.,12.0,0.,12.0
1979-07-14 10:08:29.780 ,3,0,0.,12.0,0.,12.0,0.,12.0,0.,12.0
1979-07-14 10:08:41.780 ,3,0,0.,12.0,0.,12.0,0.,12.0,0.,12.0
1979-07-14 10:08:53.780 ,2,0,0.,12.0,0.,12.0,0.,12.0,0.,12.0
1979-07-14 10:09:05.780 ,2,0,0.,12.0,0.,12.0,0.,12.0,0.,12.0
1979-07-14 10:09:17.780 ,2,0,0.,12.0,0.,12.0,0.,12.0,0.,12.0
1979-07-14 10:09:29.780 ,2,0,0.,12.0,0.,12.0,0.,12.0,0.,12.0
1979-07-14 10:09:41.780 ,1,0,0.,12.0,0.,12.0,0.,12.0,0.,12.0
1979-07-14 10:09:53.780 ,1,0,0.,12.0,0.,12.0,0.,12.0,0.,12.0
1979-07-14 10:10:05.780 ,1,0,0.,12.0,0.,12.0,0.,12.0,0.,12.0
1979-07-14 10:10:17.780 ,1,0,0.,12.0,0.,12.0,0.,12.0,0.,12.0
1979-07-14 10:10:29.780 ,0,0,0.,12.0,0.,12.0,0.,12.0,0.,12.0
1979-07-14 10:10:41.780 ,0,0,0.,12.0,0.,12.0,0.,12.0,0.,12.0
1979-07-14 10:10:53.780 ,0,0,0.,12.0,0.,12.0,0.,12.0,0.,12.0
1979-07-14 10:11:05.780 ,0,0,0.,12.0,0.,12.0,0.,12.0,0.,12.0
1979-07-14 10:11:17.780 ,0,0,0.,12.0,0.,12.0,0.,12.0,0.,12.0
1979-07-14 10:11:29.780 ,0,0,0.,12.0,0.,12.0,0.,12.0,0.,12.0
1979-07-14 10:11:41.780 ,0,0,0.,12.0,0.,12.0,0.,12.0,0.,12.0
1979-07-14 10:11:53.780 ,0,0,0.,12.0,0.,12.0,0.,12.0,0.,12.0
1979-07-14 10:12:05.780 ,1,0,0.,12.0,0.,12.0,0.,12.0,0.,12.0
1979-07-14 10:12:17.780 ,1,0,0.,12.0,0.,12.0,0.,12.0,0.,12.0
1979-07-14 10:12:29.780 ,1,0,0.,12.0,0.,12.0,0.,12.0,0.,12.0
1979-07-14 10:12:41.780 ,1,0,0.,12.0,0.,12.0,0.,12.0,0.,12.0
1979-07-14 10:12:53.780 ,2,0,0.,12.0,0.,12.0,0.,12.0,0.,12.0
1979-07-14 10:13:05.780 ,2,0,0.,12.0,0.,12.0,0.,12.0,0.,12.0
1979-07-14 10:13:17.780 ,2,0,0.,12.0,0.,12.0,0.,12.0,0.,12.0
1979-07-14 10:13:29.780 ,2,0,0.,12.0,0.,12.0,0.,12.0,0.,12.0
1979-07-14 10:13:41.780 ,3,0,0.,12.0,0.,12.0,0.,12.0,0.,12.0
1979-07-14 10:13:53.780 ,3,0,0.,12.0,0.,12.0,0.,12.0,0.,12.0
1979-07-14 10:14:05.780 ,3,0,0.,12.0,0.,12.0,0.,12.0,0.,12.0
1979-07-14 10:14:17.780 ,3,0,0.,12.0,0.,12.0,0.,12.0,0.,12.0
1979-07-14 10:14:29.780 ,4,0,0.,12.0,0.,12.0,0.,12.0,0.,12.0
1979-07-14 10:14:41.780 ,4,0,0.,12.0,0.,12.0,0.,12.0,0.,12.0
1979-07-14 10:14:53.780 ,4,0,0.,12.0,0.,12.0,0.,12.0,0.,12.0
1979-07-14 10:15:05.780 ,4,0,0.,12.0,0.,12.0,0.,12.0,0.,12.0
1979-07-14 10:15:17.780 ,5,0,0.,12.0,0.,12.0,0.,12.0,0.,12.0
1979-07-14 10:15:29.780 ,5,0,0.,12.0,0.,12.0,0.,12.0,0.,12.0
1979-07-14 10:15:41.780 ,5,0,0.,12.0,0.,12.0,0.,12.0,0.,12.0
1979-07-14 10:15:53.780 ,5,0,0.,12.0,0.,12.0,0.,12.0,0.,12.0
1979-07-14 10:16:05.780 ,6,0,0.,12.0,0.,12.0,0.,12.0,0.,12.0
1979-07-14 10:16:17.780 ,6,0,0.,12.0,0.,12.0,0.,12.0,0.,12.0
1979-07-14 10:16:29.780 ,6,0,1.,12.0,0.,12.0,0.,12.0,0.,12.0
1979-07-14 10:16:41.780 ,6,0,0.,12.0,0.,12.0,0.,12.0,0.,12.0
1979-07-14 10:16:53.780 ,7,0,0.,12.0,0.,12.0,0.,12.0,0.,12.0
1979-07-14 10:17:05.780 ,7,0,0.,12.0,0.,12.0,0.,12.0,0.,12.0
1979-07-14 10:17:17.780 ,7,0,0.,12.0,0.,12.0,0.,12.0,0.,12.0
1979-07-14 10:17:29.780 ,7,0,0.,12.0,0.,12.0,0.,12.0,0.,12.0